Previsão horária em Ablon-sur-Seine

Hoje, 18 Maio, Terça-feira

Tempo Temperatura Precipitação Vento Pressão Humidade
00:00 +8°C° 0 mm 3 m/s 754 mmHg 93%
01:00 +6°C° 0 mm 4 m/s 754 mmHg 93%
02:00 +6°C° 0 mm 4 m/s 754 mmHg 94%
03:00 +6°C° 0 mm 4 m/s 754 mmHg 94%
04:00 +7°C° 0 mm 4 m/s 755 mmHg 93%
05:00 +8°C° 0 mm 3 m/s 755 mmHg 91%
06:00 +8°C° 0 mm 3 m/s 755 mmHg 89%
07:00 +9°C° 0 mm 3 m/s 755 mmHg 85%
08:00 +10°C° 0 mm 3 m/s 755 mmHg 81%
09:00 +11°C° 0 mm 4 m/s 755 mmHg 77%
10:00 +12°C° 0.2 mm 4 m/s 755 mmHg 75%
11:00 +12°C° 0.2 mm 4 m/s 755 mmHg 73%
12:00 +13°C° 0.2 mm 4 m/s 755 mmHg 71%
13:00 +13°C° 0.3 mm 4 m/s 755 mmHg 69%
14:00 +14°C° 0.3 mm 4 m/s 755 mmHg 67%
15:00 +14°C° 0.3 mm 4 m/s 755 mmHg 64%
16:00 +14°C° 0.4 mm 4 m/s 755 mmHg 70%
17:00 +13°C° 0.4 mm 3 m/s 756 mmHg 76%
18:00 +12°C° 0.4 mm 3 m/s 756 mmHg 82%
19:00 +12°C° 0.2 mm 2 m/s 756 mmHg 84%
20:00 +10°C° 0.2 mm 2 m/s 757 mmHg 87%
21:00 +10°C° 0.2 mm 1 m/s 757 mmHg 89%
22:00 +10°C° 0.1 mm 1 m/s 757 mmHg 90%
23:00 +9°C° 0.1 mm 1 m/s 757 mmHg 90%

Amanhã, 19 Maio, Quarta-feira

Tempo Temperatura Precipitação Vento Pressão Humidade
00:00 +9°C° 0.1 mm 1 m/s 757 mmHg 91%
01:00 +9°C° 0.2 mm 1 m/s 757 mmHg 93%
02:00 +9°C° 0.2 mm 1 m/s 757 mmHg 94%
03:00 +9°C° 0.2 mm 1 m/s 757 mmHg 96%
04:00 +8°C° 0.2 mm 2 m/s 757 mmHg 95%
05:00 +8°C° 0.2 mm 2 m/s 757 mmHg 95%
06:00 +9°C° 0.2 mm 3 m/s 757 mmHg 95%
07:00 +9°C° 0.3 mm 3 m/s 757 mmHg 92%
08:00 +10°C° 0.3 mm 4 m/s 757 mmHg 89%
09:00 +10°C° 0.3 mm 5 m/s 757 mmHg 87%
10:00 +10°C° 0.7 mm 5 m/s 757 mmHg 85%
11:00 +12°C° 0.7 mm 5 m/s 757 mmHg 84%
12:00 +12°C° 0.7 mm 5 m/s 757 mmHg 82%
13:00 +13°C° 0.6 mm 5 m/s 757 mmHg 80%
14:00 +13°C° 0.6 mm 5 m/s 757 mmHg 79%
15:00 +13°C° 0.6 mm 5 m/s 757 mmHg 77%
16:00 +13°C° 0.3 mm 5 m/s 758 mmHg 78%
17:00 +12°C° 0.3 mm 5 m/s 758 mmHg 79%
18:00 +12°C° 0.3 mm 4 m/s 758 mmHg 80%
19:00 +11°C° 0 mm 4 m/s 759 mmHg 83%
20:00 +10°C° 0 mm 3 m/s 759 mmHg 86%
21:00 +8°C° 0 mm 3 m/s 760 mmHg 90%
22:00 +8°C° 0 mm 3 m/s 760 mmHg 90%
23:00 +7°C° 0 mm 3 m/s 760 mmHg 90%

Depois de amanhã, 20 Maio, Quinta-feira

Tempo Temperatura Precipitação Vento Pressão Humidade
00:00 +7°C° 0 mm 3 m/s 760 mmHg 90%
01:00 +7°C° 0 mm 2 m/s 761 mmHg 91%
02:00 +6°C° 0 mm 2 m/s 761 mmHg 92%
03:00 +6°C° 0 mm 2 m/s 761 mmHg 93%
04:00 +7°C° 0 mm 2 m/s 761 mmHg 90%
05:00 +7°C° 0 mm 2 m/s 761 mmHg 87%
06:00 +8°C° 0 mm 2 m/s 761 mmHg 85%
07:00 +10°C° 0 mm 2 m/s 761 mmHg 78%
08:00 +11°C° 0 mm 3 m/s 761 mmHg 70%
09:00 +13°C° 0 mm 3 m/s 761 mmHg 63%
10:00 +14°C° 0 mm 3 m/s 761 mmHg 59%
11:00 +14°C° 0 mm 4 m/s 761 mmHg 55%
12:00 +15°C° 0 mm 4 m/s 760 mmHg 50%
13:00 +15°C° 0 mm 4 m/s 760 mmHg 53%
14:00 +15°C° 0 mm 4 m/s 760 mmHg 55%
15:00 +15°C° 0 mm 4 m/s 759 mmHg 58%
16:00 +15°C° 0 mm 4 m/s 759 mmHg 62%
17:00 +14°C° 0 mm 3 m/s 758 mmHg 66%
18:00 +14°C° 0 mm 3 m/s 758 mmHg 69%
19:00 +13°C° 0 mm 3 m/s 757 mmHg 70%
20:00 +13°C° 0 mm 3 m/s 757 mmHg 70%
21:00 +13°C° 0 mm 3 m/s 757 mmHg 70%
22:00 +13°C° 0 mm 4 m/s 756 mmHg 72%
23:00 +12°C° 0 mm 4 m/s 755 mmHg 74%

21 Maio, Sexta-feira

Tempo Temperatura Precipitação Vento Pressão Humidade
00:00 +12°C° 0 mm 4 m/s 755 mmHg 76%
01:00 +11°C° 0.4 mm 4 m/s 754 mmHg 82%
02:00 +11°C° 0.4 mm 4 m/s 754 mmHg 88%
03:00 +10°C° 0.4 mm 4 m/s 753 mmHg 94%
04:00 +10°C° 0.8 mm 4 m/s 753 mmHg 94%
05:00 +10°C° 0.8 mm 4 m/s 753 mmHg 94%
06:00 +10°C° 0.8 mm 4 m/s 752 mmHg 94%
07:00 +10°C° 1 mm 4 m/s 752 mmHg 94%
08:00 +10°C° 1 mm 4 m/s 751 mmHg 94%
09:00 +10°C° 1 mm 4 m/s 751 mmHg 94%
10:00 +9°C° 0.7 mm 5 m/s 751 mmHg 94%
11:00 +9°C° 0.7 mm 5 m/s 751 mmHg 93%
12:00 +9°C° 0.7 mm 5 m/s 750 mmHg 92%
13:00 +10°C° 0.2 mm 5 m/s 750 mmHg 89%
14:00 +11°C° 0.2 mm 6 m/s 749 mmHg 85%
15:00 +13°C° 0.2 mm 6 m/s 749 mmHg 82%
16:00 +11°C° 0.1 mm 6 m/s 749 mmHg 82%
17:00 +10°C° 0.1 mm 6 m/s 748 mmHg 83%
18:00 +10°C° 0.1 mm 6 m/s 748 mmHg 83%
19:00 +10°C° 0 mm 6 m/s 748 mmHg 84%
20:00 +9°C° 0 mm 6 m/s 748 mmHg 85%
21:00 +9°C° 0 mm 6 m/s 748 mmHg 86%
22:00 +9°C° 0 mm 7 m/s 748 mmHg 82%
23:00 +9°C° 0 mm 7 m/s 747 mmHg 78%

22 Maio, Sábado

Tempo Temperatura Precipitação Vento Pressão Humidade
00:00 +9°C° 0 mm 7 m/s 747 mmHg 74%
01:00 +9°C° 0 mm 8 m/s 747 mmHg 74%
02:00 +7°C° 0 mm 8 m/s 747 mmHg 75%
03:00 +7°C° 0 mm 8 m/s 747 mmHg 76%
04:00 +7°C° 0.3 mm 8 m/s 747 mmHg 79%
05:00 +7°C° 0.3 mm 8 m/s 747 mmHg 83%
06:00 +7°C° 0.3 mm 8 m/s 747 mmHg 87%
07:00 +7°C° 0.3 mm 8 m/s 747 mmHg 88%
08:00 +7°C° 0.3 mm 8 m/s 748 mmHg 89%
09:00 +7°C° 0.3 mm 8 m/s 748 mmHg 91%
10:00 +9°C° 0.3 mm 7 m/s 748 mmHg 89%
11:00 +10°C° 0.3 mm 6 m/s 748 mmHg 87%
12:00 +10°C° 0.3 mm 6 m/s 749 mmHg 85%
13:00 +10°C° 0.6 mm 5 m/s 749 mmHg 84%
14:00 +10°C° 0.6 mm 5 m/s 749 mmHg 83%
15:00 +10°C° 0.6 mm 5 m/s 750 mmHg 82%
16:00 +11°C° 0.3 mm 4 m/s 750 mmHg 81%
17:00 +11°C° 0.3 mm 4 m/s 750 mmHg 79%
18:00 +12°C° 0.3 mm 4 m/s 750 mmHg 78%
19:00 +10°C° 0 mm 3 m/s 751 mmHg 80%
20:00 +9°C° 0 mm 3 m/s 752 mmHg 82%
21:00 +7°C° 0 mm 3 m/s 752 mmHg 84%
22:00 +7°C° 0 mm 3 m/s 753 mmHg 84%
23:00 +5°C° 0 mm 3 m/s 753 mmHg 84%

23 Maio, Domingo

Tempo Temperatura Precipitação Vento Pressão Humidade
00:00 +4°C° 0 mm 3 m/s 753 mmHg 84%
01:00 +4°C° 0 mm 3 m/s 754 mmHg 85%
02:00 +3°C° 0 mm 3 m/s 754 mmHg 86%
03:00 +3°C° 0 mm 3 m/s 754 mmHg 87%
04:00 +4°C° 0 mm 3 m/s 755 mmHg 86%
05:00 +5°C° 0 mm 4 m/s 755 mmHg 84%
06:00 +5°C° 0 mm 4 m/s 755 mmHg 83%
07:00 +7°C° 0 mm 4 m/s 755 mmHg 75%
08:00 +9°C° 0 mm 5 m/s 756 mmHg 68%
09:00 +10°C° 0 mm 6 m/s 756 mmHg 60%
10:00 +11°C° 0 mm 6 m/s 756 mmHg 58%
11:00 +11°C° 0 mm 6 m/s 756 mmHg 56%
12:00 +13°C° 0 mm 6 m/s 756 mmHg 53%
13:00 +13°C° 0.1 mm 6 m/s 755 mmHg 58%
14:00 +13°C° 0.1 mm 6 m/s 755 mmHg 62%
15:00 +13°C° 0.1 mm 6 m/s 755 mmHg 66%
16:00 +12°C° 0.2 mm 5 m/s 755 mmHg 70%
17:00 +12°C° 0.2 mm 5 m/s 755 mmHg 73%
18:00 +10°C° 0.2 mm 5 m/s 755 mmHg 77%
19:00 +10°C° 0 mm 5 m/s 756 mmHg 78%
20:00 +9°C° 0 mm 5 m/s 756 mmHg 80%
21:00 +8°C° 0 mm 5 m/s 757 mmHg 81%
22:00 +8°C° 0 mm 5 m/s 757 mmHg 82%
23:00 +8°C° 0 mm 5 m/s 757 mmHg 83%
Mostrar mais

Necessitamos do seu Consentimento

A Meteoprog e os seus Fornecedores de Serviços podem armazenar e aceder a dados pessoais como cookies, identificadores do dispositivo ou outras tecnologias semelhantes existentes no seu dispositivo e processar estes dados para personalizar conteúdos e anúncios, assim como funcionalidades nas redes sociais e análise de tráfego.

  • Armazenar e/ou aceder a informações no seu dispositivo

    Os cookies, identificadores do dispositivo ou outras informações podem ser armazenados ou acedidos no seu dispositivo, para os fins acima indicados.

  • Anúncios e conteúdos personalizados, medição de anúncios e conteúdos, dados sobre o público-alvo e desenvolvimento de produtos

    Os anúncios e os conteúdos podem ser personalizados com base num perfil. Podem ser adicionados dados adicionais para uma maior personalização dos anúncios e dos conteúdos. A eficácia dos anúncios e dos conteúdos pode ser medida. Podem ser obtidas informações sobre o público que visualizou os anúncios e os conteúdos. Estes dados podem ser usados para desenvolver ou melhorar sistemas, softwares ou a experiência do utilizador.

Ao clicar em "Eu concordo”, permitirá o uso de cookies, identificadores do dispositivo e web beacons mencionados ou outras tecnologias semelhantes. As configurações do navegador do seu dispositivo podem ser alteradas.

Para certos fins, podem ser invocados interesses legítimos ao invés de consentimento. Pode ler mais informação sobre este assunto na nossa Política de Privacidade e Cookies.